FW9069 Weather Reports


time (UTC)temp
F
wind
direction
speed
knots
gust
knots
rain 1hr
in
rain 24hr
in
rain mn
in
humidity
%
barometer
mb
20260502193327 61 10 2.6 7.0 0.00 0.00 0.00 75 1015.8
20260502191832 58 7 2.6 7.0 0.00 0.00 0.00 76 1015.8
20260502190321 58 335 2.6 7.0 0.00 0.00 0.00 76 1016.2
20260502184850 57 325 0.9 6.1 0.00 0.00 0.00 78 1016.1
20260502183336 57 327 2.6 6.1 0.00 0.00 0.00 79 1016.2
20260502181823 55 22 1.7 2.6 0.00 0.00 0.00 82 1016.3
20260502180351 54 317 0.9 4.3 0.00 0.00 0.00 84 1016.2
20260502170336 53 360 5.2 7.8 0.00 0.00 0.00 85 1016.6
20260502163332 53 9 1.7 4.3 0.00 0.00 0.00 85 1016.7
20260502161820 52 359 2.6 6.1 0.00 0.00 0.00 86 1016.7
20260502160333 52 328 2.6 3.5 0.00 0.00 0.00 87 1016.6
20260502151823 50 264 0.9 2.6 0.00 0.00 0.00 89 1016.6
20260502150335 49 260 0.0 1.7 0.00 0.00 0.00 89 1016.6
20260502130324 48 223 4.3 6.1 0.00 0.00 0.00 87 1016.6
20260502123322 48 240 2.6 6.1 0.00 0.00 0.00 86 1016.5
20260502121833 48 242 2.6 6.1 0.00 0.00 0.00 86 1016.6
20260502120322 49 240 1.7 6.1 0.00 0.00 0.00 86 1016.5
20260502114829 49 229 2.6 5.2 0.00 0.00 0.00 85 1016.5
20260502113340 49 241 1.7 2.6 0.00 0.00 0.00 85 1016.5
20260502111826 50 240 0.9 2.6 0.00 0.00 0.00 85 1016.2
20260502110335 50 236 1.7 4.3 0.00 0.00 0.00 85 1016.5
20260502104822 50 273 0.9 2.6 0.00 0.00 0.00 84 1016.0
20260502103330 50 242 0.9 4.3 0.00 0.00 0.00 84 1016.2
20260502101822 50 245 2.6 7.8 0.00 0.00 0.00 84 1016.2
20260502100325 50 234 4.3 7.8 0.00 0.00 0.00 83 1016.1
20260502090331 52 230 4.3 8.7 0.00 0.00 0.00 81 1016.6
20260502070345 52 223 7.8 10.4 0.00 0.00 0.00 81 1017.2
20260502064832 52 240 6.1 11.3 0.00 0.00 0.00 82 1017.1
20260502063324 52 219 5.2 10.4 0.00 0.00 0.00 82 1017.1
20260502061833 52 231 7.0 13.0 0.00 0.00 0.00 83 1017.0
20260502060330 52 220 7.0 13.0 0.00 0.00 0.00 83 1017.1
20260502054839 52 238 5.2 13.9 0.00 0.00 0.00 83 1017.1
20260502053354 52 235 8.7 16.5 0.00 0.00 0.00 83 1016.9
20260502051822 52 237 9.6 13.9 0.00 0.00 0.00 83 1016.9
20260502050355 52 223 7.0 13.0 0.00 0.00 0.00 83 1016.8
20260502044831 53 221 8.7 13.0 0.00 0.00 0.00 83 1016.6
20260502043321 53 244 7.8 15.6 0.00 0.00 0.00 83 1016.6
20260502041833 53 217 7.8 16.5 0.00 0.00 0.00 83 1016.3
20260502040356 53 254 9.6 16.5 0.00 0.00 0.00 83 1016.2
20260502034819 54 267 8.7 16.5 0.00 0.00 0.00 82 1016.0
20260502033327 54 356 4.3 13.0 0.00 0.00 0.00 81 1016.1
20260502031837 54 222 9.6 15.6 0.00 0.00 0.00 81 1015.3
20260502030327 55 217 12.2 19.1 0.00 0.00 0.00 79 1015.1
20260502024843 56 230 11.3 15.6 0.00 0.00 0.00 78 1014.9
20260502023328 57 233 8.7 14.8 0.00 0.00 0.00 76 1014.9
20260502021837 58 222 9.6 15.6 0.00 0.00 0.00 75 1014.8
20260502020325 59 223 10.4 16.5 0.00 0.00 0.00 74 1015.0
20260502014839 60 229 9.6 17.4 0.00 0.00 0.00 72 1014.9
20260502013328 62 215 9.6 13.9 0.00 0.00 0.00 70 1015.1
20260502011838 63 251 7.0 14.8 0.00 0.00 0.00 68 1015.1
20260502010329 64 202 9.6 13.0 0.00 0.00 0.00 67 1015.0
20260502004836 66 238 7.8 16.5 0.00 0.00 0.00 65 1015.1
20260502003344 68 248 5.2 12.2 0.00 0.00 0.00 63 1015.3
20260502001831 70 233 5.2 11.3 0.00 0.00 0.00 60 1015.1
20260502000339 71 234 4.3 10.4 0.00 0.00 0.00 59 1015.3
20260501234822 73 244 6.1 8.7 0.00 0.00 0.00 58 1015.2
20260501233330 73 236 0.9 8.7 0.00 0.00 0.00 57 1015.4
20260501231819 73 225 6.1 9.6 0.00 0.00 0.00 57 1015.4
20260501230322 73 220 6.1 10.4 0.00 0.00 0.00 58 1015.6
20260501224832 73 208 7.0 12.2 0.00 0.00 0.00 58 1015.7
20260501223337 73 192 3.5 7.0 0.00 0.00 0.00 64 1015.7
20260501221824 73 243 1.7 8.7 0.00 0.00 0.00 62 1016.1
20260501220332 73 215 3.5 6.1 0.00 0.00 0.00 63 1016.1
20260501214852 72 168 1.7 7.8 0.00 0.00 0.00 62 1016.3
20260501213342 72 107 3.5 6.1 0.00 0.00 0.00 60 1016.4
20260501211852 71 1 1.7 3.5 0.00 0.00 0.00 58 1016.4
20260501210319 71 76 3.5 7.0 0.00 0.00 0.00 61 1016.4
20260501204847 70 163 0.9 5.2 0.00 0.00 0.00 61 1016.5
20260501203333 70 150 2.6 4.3 0.00 0.00 0.00 62 1016.8
20260501201818 69 237 1.7 5.2 0.00 0.00 0.00 64 1017.1
20260501200334 67 223 1.7 7.0 0.00 0.00 0.00 71 1017.2
20260501194843 66 227 0.9 7.8 0.00 0.00 0.00 70 1017.5